Home > Weather > Keren > Past weeks

Flag for Eritrea Weather for the Past 2 Weeks in Keren, Eritrea

Now
84 °F

Passing clouds.


Feels Like: 88 °F
Forecast: 68 / 90 °F
Wind: 5 mph from West

Location: Gizan

Current Time: May 4, 2016 at 1:57:03 AM

Latest Report: May 4, 2016 at 1:00 AM


Visibility: N/A

Pressure: 29.77 "Hg (25.43 "Hg at 1393m altitude)

Humidity: 62%

Dew Point: 70 °F

Location of KerenLocation

Historic Weather in Keren — Graph

°F

Keren Temperature Yesterday

Maximum temperature yesterday: 99 °F (at 1:00 PM)
Minimum temperature yesterday: 84 °F (at 11:00 PM)
Average temperature yesterday: 92 °F

High & Low Weather Summary for the Past Weeks

 TemperatureHumidityPressure
High102 °F (Apr 30, 11:00 AM)79% (Apr 24, 2:00 AM)29.92 "Hg (Apr 24, 2:00 AM)
Low81 °F (Apr 30, 2:00 AM)37% (Apr 30, 11:00 AM)29.68 "Hg (Apr 23, 5:00 PM)
Average92 °F59%29.78 "Hg
* Reported Midnight between Apr 18 and Apr 19 — Midnight between May 3 and May 4, Keren, Weather by CustomWeather, © 2016

Note: Actual official high and low records may vary slightly from our data, if they occured in-between our weather recording intervals... More about our weather records

Advertising

Keren Weather History for the Previous 24 Hours

Scroll right to see more
 ConditionsComfort  
Time TempWeatherWind HumidityBarometerVisibility
12:00 AM
Wed, May 4
84 °FPassing clouds.12 mph62%29.77 "HgN/A
11:00 PM
Tue, May 3
84 °FPassing clouds.7 mph62%29.80 "Hg6 mi
10:00 PM86 °FPassing clouds.12 mph55%29.83 "Hg3 mi
9:00 PM88 °FThunderstorms. Sandstorm.23 mph62%29.89 "Hg3 mi
8:00 PM91 °FPassing clouds.10 mph52%29.86 "Hg2 mi
7:00 PM91 °FPassing clouds.6 mph63%29.83 "HgN/A
6:00 PM93 °FScattered clouds.8 mph59%29.77 "HgN/A
5:00 PM95 °FPassing clouds.9 mph56%29.77 "HgN/A
4:00 PM97 °FPassing clouds.12 mph53%29.71 "HgN/A
3:00 PM97 °FScattered clouds.12 mph50%29.74 "HgN/A
2:00 PM99 °FScattered clouds.15 mph42%29.77 "HgN/A
1:00 PM99 °FScattered clouds.15 mph47%29.80 "HgN/A
12:00 PM95 °FScattered clouds.12 mph56%29.83 "HgN/A
11:00 AM95 °FScattered clouds.9 mph56%29.83 "HgN/A
10:00 AM93 °FScattered clouds.6 mph67%29.86 "HgN/A
9:00 AM93 °FScattered clouds.5 mph63%29.86 "HgN/A
8:00 AM91 °FScattered clouds.6 mph67%29.86 "HgN/A
7:00 AM90 °FScattered clouds.6 mph67%29.83 "HgN/A
6:00 AM90 °FScattered clouds.No wind67%29.80 "HgN/A
5:00 AM90 °FPassing clouds.No wind67%29.77 "HgN/A
4:00 AM88 °FPassing clouds.No wind75%29.77 "HgN/A
3:00 AM90 °FPassing clouds.7 mph67%29.77 "HgN/A
2:00 AM91 °FPassing clouds.No wind67%29.74 "HgN/A
1:00 AM91 °FPassing clouds.No wind63%29.77 "HgN/A
Weather by CustomWeather, © 2016

See weather overviewHow to use our weather pages